SCOUT A DEB, 4555

Orbit data source: Space-Track

SCOUT A DEB, 4555 is space debris in LEO originally from a launch on Thu, 19 May 1966 UTC launched from the Air Force Western Test Range (AFWTR). Debris objects in space refer to the collection of defunct objects orbiting the Earth. Examples of debris include non-operational satellites, rocket bodies, and fragments generated from explosions, collisions, or faulty payload assembly.

Loading next visibility...
Identifier
4555, 1966-041F
Orbit
LEO
Country
Flag of USUS
Related business
Manufacturer
Unknown
Mission
Spacecraft
Bus & Motor
Unknown
Mass
Unknown
Launch date (UTC)
1966-05-19 (59 years ago)
Launch vehicle
Unknown
Launch site
Air Force Western Test Range (AFWTR)
Object type
Payload
Rocket body
Debris
Shape & HBR
Unknown shape, 0.1 m
Radar Cross Section
Small (<0.1 m²)

Expand to show TLE details & history
Last TLE update: 19 hours ago

TLE from 19 hours ago
0 SCOUT A DEB
1 04555U 66041F   25302.77893376  .00005772  00000-0  14369-2 0  9994
2 04555  90.2071  68.9289 0042105 176.6198 183.5303 14.51112399390496
Epoch: 2025-10-29T18:41Z
TLE epoch observation values (Epoch: 2025-10-29T18:41:39.876Z)
Latitude
-0°
Longitude
110.16557°
Altitude
754.963 km
Speed
7.461 km/s
True Right ascension
04h 35m 42s
True Declination
0° 00' 00"
Sunlit
Object was in full shadow at epoch
Visualization orbit readout
Latitude
Unknown
Longitude
Unknown
Altitude
Unknown
Speed
Unknown
Apparent Right ascension
Unknown
Apparent Declination
Unknown
Sunlit
N/A
Visualization observer readout
Local Sidereal Time
09:00:18
Azimuth
Unknown
Elevation
Unknown
Doppler factor
Unknown
Orbital elements
Apogee altitude
748.804 km
Perigee altitude
689.039 km
Semi-major axis
7,097.059 km
Eccentricity
0.00421
Inclination
90.2071°
RAAN
68.9289°
Arg. of periapsis
176.6198°
True anomaly
183.50075°
Mean anomaly
183.5303°
Eccentric anomaly
183.51551°
Mean motion
3.63016 °/min
Orbital period
99.17 mins
BSTAR
0.0014369
Loading maneuver chart data...
Computing Atmospheric mass density...
Loading historical data...
Loading historical data...
Loading historical data...
Loading historical data...
Loading historical data...
Loading historical data...
Loading historical data...

Documentation

Showing up to 5 results
|